Year,Month,Day,Hour,Minute,Value (Times are PST for windgust in km/hr)
2015,08,29,00,00,1.60
2015,08,29,00,01,1.60
2015,08,29,00,02,1.60
2015,08,29,00,03,1.60
2015,08,29,00,04,1.60
2015,08,29,00,05,3.20
2015,08,29,00,06,1.60
2015,08,29,00,07,3.20
2015,08,29,00,08,3.20
2015,08,29,00,09,3.20
2015,08,29,00,10,4.80
2015,08,29,00,11,3.20
2015,08,29,00,12,8.10
2015,08,29,00,13,9.60
2015,08,29,00,14,4.80
2015,08,29,00,15,6.40
2015,08,29,00,16,3.20
2015,08,29,00,17,4.80
2015,08,29,00,18,8.10
2015,08,29,00,19,4.80
2015,08,29,00,20,3.20
2015,08,29,00,21,4.80
2015,08,29,00,22,4.80
2015,08,29,00,23,3.20
2015,08,29,00,24,8.10
2015,08,29,00,25,3.20
2015,08,29,00,27,6.40
2015,08,29,00,28,6.40
2015,08,29,00,29,8.10
2015,08,29,00,30,6.40
2015,08,29,00,31,6.40
2015,08,29,00,32,8.10
2015,08,29,00,33,11.30
2015,08,29,00,34,6.40
2015,08,29,00,35,4.80
2015,08,29,00,36,8.10
2015,08,29,00,37,12.90
2015,08,29,00,38,8.10
2015,08,29,00,39,4.80
2015,08,29,00,40,3.20
2015,08,29,00,41,3.20
2015,08,29,00,42,6.40
2015,08,29,00,43,9.60
2015,08,29,00,44,6.40
2015,08,29,00,45,8.10
2015,08,29,00,46,3.20
2015,08,29,00,47,4.80
2015,08,29,00,48,8.10
2015,08,29,00,49,4.80
2015,08,29,00,50,3.20
2015,08,29,00,51,3.20
2015,08,29,00,52,8.10
2015,08,29,00,53,6.40
2015,08,29,00,54,6.40
2015,08,29,00,55,4.80
2015,08,29,00,56,4.80
2015,08,29,00,57,3.20
2015,08,29,00,58,3.20
2015,08,29,00,59,4.80
2015,08,29,01,00,4.80
2015,08,29,01,01,3.20
2015,08,29,01,02,1.60
2015,08,29,01,03,1.60
2015,08,29,01,04,1.60
2015,08,29,01,05,1.60
2015,08,29,01,06,1.60
2015,08,29,01,14,4.80
2015,08,29,01,15,4.80
2015,08,29,01,16,3.20
2015,08,29,01,17,4.80
2015,08,29,01,18,4.80
2015,08,29,01,19,6.40
2015,08,29,01,20,3.20
2015,08,29,01,21,1.60
2015,08,29,01,22,3.20
2015,08,29,01,23,3.20
2015,08,29,01,24,1.60
2015,08,29,01,25,3.20
2015,08,29,01,26,1.60
2015,08,29,01,27,1.60
2015,08,29,01,28,1.60
2015,08,29,01,29,1.60
2015,08,29,01,30,1.60
2015,08,29,01,32,1.60
2015,08,29,01,34,1.60
2015,08,29,01,38,1.60
2015,08,29,01,39,1.60
2015,08,29,01,40,1.60
2015,08,29,01,42,1.60
2015,08,29,01,43,1.60
2015,08,29,01,47,3.20
2015,08,29,01,49,1.60
2015,08,29,01,50,1.60
2015,08,29,01,51,1.60
2015,08,29,01,52,1.60
2015,08,29,02,28,1.60
2015,08,29,02,29,1.60
2015,08,29,02,34,3.20
2015,08,29,02,35,3.20
2015,08,29,02,36,3.20
2015,08,29,02,37,3.20
2015,08,29,02,38,1.60
2015,08,29,02,39,1.60
2015,08,29,02,40,1.60
2015,08,29,02,41,3.20
2015,08,29,02,42,1.60
2015,08,29,02,44,1.60
2015,08,29,02,45,1.60
2015,08,29,02,53,1.60
2015,08,29,02,54,1.60
2015,08,29,02,55,1.60
2015,08,29,02,56,3.20
2015,08,29,02,57,3.20
2015,08,29,02,58,3.20
2015,08,29,03,14,1.60
2015,08,29,03,15,1.60
2015,08,29,03,16,1.60
2015,08,29,03,17,1.60
2015,08,29,03,40,1.60
2015,08,29,03,41,1.60
2015,08,29,03,42,1.60
2015,08,29,03,43,1.60
2015,08,29,03,44,3.20
2015,08,29,03,45,3.20
2015,08,29,03,46,3.20
2015,08,29,03,47,1.60
2015,08,29,03,48,1.60
2015,08,29,03,49,1.60
2015,08,29,03,52,1.60
2015,08,29,03,55,1.60
2015,08,29,03,56,1.60
2015,08,29,03,57,1.60
2015,08,29,03,58,1.60
2015,08,29,03,59,1.60
2015,08,29,04,00,1.60
2015,08,29,04,01,1.60
2015,08,29,04,02,1.60
2015,08,29,04,10,3.20
2015,08,29,04,11,3.20
2015,08,29,04,12,3.20
2015,08,29,04,13,1.60
2015,08,29,04,14,1.60
2015,08,29,04,15,3.20
2015,08,29,04,16,1.60
2015,08,29,04,17,1.60
2015,08,29,04,22,3.20
2015,08,29,04,23,3.20
2015,08,29,04,25,1.60
2015,08,29,04,26,1.60
2015,08,29,04,27,3.20
2015,08,29,04,28,3.20
2015,08,29,04,29,3.20
2015,08,29,04,30,3.20
2015,08,29,04,31,3.20
2015,08,29,04,32,3.20
2015,08,29,04,33,3.20
2015,08,29,04,34,3.20
2015,08,29,04,35,3.20
2015,08,29,04,36,3.20
2015,08,29,04,37,3.20
2015,08,29,04,38,1.60
2015,08,29,04,39,1.60
2015,08,29,04,40,1.60
2015,08,29,04,44,1.60
2015,08,29,04,45,1.60
2015,08,29,04,46,3.20
2015,08,29,04,47,4.80
2015,08,29,04,48,6.40
2015,08,29,04,49,6.40
2015,08,29,04,50,6.40
2015,08,29,04,51,4.80
2015,08,29,04,52,4.80
2015,08,29,04,53,4.80
2015,08,29,04,54,3.20
2015,08,29,04,55,1.60
2015,08,29,04,56,3.20
2015,08,29,04,57,1.60
2015,08,29,05,01,1.60
2015,08,29,05,02,4.80
2015,08,29,05,03,4.80
2015,08,29,05,04,4.80
2015,08,29,05,05,3.20
2015,08,29,05,06,3.20
2015,08,29,05,07,4.80
2015,08,29,05,08,4.80
2015,08,29,05,09,3.20
2015,08,29,05,10,1.60
2015,08,29,05,11,3.20
2015,08,29,05,12,3.20
2015,08,29,05,13,1.60
2015,08,29,05,18,1.60
2015,08,29,05,19,3.20
2015,08,29,05,20,1.60
2015,08,29,05,21,3.20
2015,08,29,05,22,1.60
2015,08,29,05,23,4.80
2015,08,29,05,24,4.80
2015,08,29,05,25,4.80
2015,08,29,05,26,1.60
2015,08,29,05,27,1.60
2015,08,29,05,28,1.60
2015,08,29,05,29,1.60
2015,08,29,05,36,3.20
2015,08,29,05,37,1.60
2015,08,29,05,38,3.20
2015,08,29,05,39,1.60
2015,08,29,05,40,1.60
2015,08,29,05,41,1.60
2015,08,29,05,42,1.60
2015,08,29,05,43,1.60
2015,08,29,05,44,1.60
2015,08,29,05,45,1.60
2015,08,29,05,46,3.20
2015,08,29,05,47,4.80
2015,08,29,05,48,3.20
2015,08,29,05,49,3.20
2015,08,29,05,50,6.40
2015,08,29,05,51,3.20
2015,08,29,05,52,4.80
2015,08,29,05,53,4.80
2015,08,29,05,54,4.80
2015,08,29,05,55,4.80
2015,08,29,05,56,4.80
2015,08,29,05,57,3.20
2015,08,29,05,58,3.20
2015,08,29,05,59,3.20
2015,08,29,06,00,3.20
2015,08,29,06,01,1.60
2015,08,29,06,02,3.20
2015,08,29,06,03,3.20
2015,08,29,06,04,3.20
2015,08,29,06,05,3.20
2015,08,29,06,06,3.20
2015,08,29,06,07,4.80
2015,08,29,06,08,3.20
2015,08,29,06,09,3.20
2015,08,29,06,10,3.20
2015,08,29,06,11,1.60
2015,08,29,06,12,1.60
2015,08,29,06,13,4.80
2015,08,29,06,14,3.20
2015,08,29,06,15,4.80
2015,08,29,06,16,3.20
2015,08,29,06,17,3.20
2015,08,29,06,18,3.20
2015,08,29,06,19,6.40
2015,08,29,06,20,8.10
2015,08,29,06,21,6.40
2015,08,29,06,22,4.80
2015,08,29,06,23,6.40
2015,08,29,06,24,14.50
2015,08,29,06,25,4.80
2015,08,29,06,26,6.40
2015,08,29,06,27,4.80
2015,08,29,06,28,3.20
2015,08,29,06,29,3.20
2015,08,29,06,30,4.80
2015,08,29,06,31,3.20
2015,08,29,06,32,6.40
2015,08,29,06,33,4.80
2015,08,29,06,34,6.40
2015,08,29,06,35,4.80
2015,08,29,06,36,3.20
2015,08,29,06,37,3.20
2015,08,29,06,38,6.40
2015,08,29,06,39,9.60
2015,08,29,06,40,8.10
2015,08,29,06,41,4.80
2015,08,29,06,42,4.80
2015,08,29,06,43,6.40
2015,08,29,06,44,4.80
2015,08,29,06,45,1.60
2015,08,29,06,46,6.40
2015,08,29,06,47,8.10
2015,08,29,06,48,8.10
2015,08,29,06,49,3.20
2015,08,29,06,50,6.40
2015,08,29,06,51,8.10
2015,08,29,06,52,6.40
2015,08,29,06,53,11.30
2015,08,29,06,54,8.10
2015,08,29,06,55,6.40
2015,08,29,06,56,11.30
2015,08,29,06,57,8.10
2015,08,29,06,58,11.30
2015,08,29,06,59,4.80
2015,08,29,07,00,8.10
2015,08,29,07,01,9.60
2015,08,29,07,02,11.30
2015,08,29,07,03,8.10
2015,08,29,07,04,9.60
2015,08,29,07,05,11.30
2015,08,29,07,06,12.90
2015,08,29,07,07,9.60
2015,08,29,07,08,11.30
2015,08,29,07,09,12.90
2015,08,29,07,10,6.40
2015,08,29,07,11,8.10
2015,08,29,07,12,11.30
2015,08,29,07,13,8.10
2015,08,29,07,14,8.10
2015,08,29,07,15,14.50
2015,08,29,07,16,17.70
2015,08,29,07,17,14.50
2015,08,29,07,18,9.60
2015,08,29,07,19,6.40
2015,08,29,07,20,11.30
2015,08,29,07,21,14.50
2015,08,29,07,22,11.30
2015,08,29,07,23,14.50
2015,08,29,07,24,12.90
2015,08,29,07,25,11.30
2015,08,29,07,26,14.50
2015,08,29,07,27,12.90
2015,08,29,07,28,11.30
2015,08,29,07,29,25.70
2015,08,29,07,30,16.10
2015,08,29,07,31,11.30
2015,08,29,07,32,16.10
2015,08,29,07,33,16.10
2015,08,29,07,34,12.90
2015,08,29,07,35,19.30
2015,08,29,07,36,6.40
2015,08,29,07,37,11.30
2015,08,29,07,38,12.90
2015,08,29,07,39,14.50
2015,08,29,07,40,12.90
2015,08,29,07,41,11.30
2015,08,29,07,42,17.70
2015,08,29,07,43,14.50
2015,08,29,07,44,6.40
2015,08,29,07,45,6.40
2015,08,29,07,46,11.30
2015,08,29,07,47,14.50
2015,08,29,07,48,14.50
2015,08,29,07,49,14.50
2015,08,29,07,50,11.30
2015,08,29,07,51,9.60
2015,08,29,07,52,14.50
2015,08,29,07,53,12.90
2015,08,29,07,54,14.50
2015,08,29,07,55,12.90
2015,08,29,07,56,12.90
2015,08,29,07,57,12.90
2015,08,29,07,58,12.90
2015,08,29,07,59,17.70
2015,08,29,08,00,9.60
2015,08,29,08,01,6.40
2015,08,29,08,02,14.50
2015,08,29,08,03,12.90
2015,08,29,08,04,11.30
2015,08,29,08,05,9.60
2015,08,29,08,06,8.10
2015,08,29,08,07,9.60
2015,08,29,08,08,9.60
2015,08,29,08,09,11.30
2015,08,29,08,10,17.70
2015,08,29,08,11,8.10
2015,08,29,08,12,11.30
2015,08,29,08,13,8.10
2015,08,29,08,14,6.40
2015,08,29,08,15,8.10
2015,08,29,08,16,14.50
2015,08,29,08,17,11.30
2015,08,29,08,18,12.90
2015,08,29,08,19,12.90
2015,08,29,08,20,11.30
2015,08,29,08,21,17.70
2015,08,29,08,22,12.90
2015,08,29,08,23,11.30
2015,08,29,08,24,14.50
2015,08,29,08,25,16.10
2015,08,29,08,26,16.10
2015,08,29,08,27,14.50
2015,08,29,08,28,16.10
2015,08,29,08,29,24.20
2015,08,29,08,30,24.20
2015,08,29,08,31,22.50
2015,08,29,08,32,20.90
2015,08,29,08,33,20.90
2015,08,29,08,34,17.70
2015,08,29,08,35,24.20
2015,08,29,08,36,19.30
2015,08,29,08,37,16.10
2015,08,29,08,38,14.50
2015,08,29,08,39,20.90
2015,08,29,08,40,24.20
2015,08,29,08,41,16.10
2015,08,29,08,42,20.90
2015,08,29,08,43,19.30
2015,08,29,08,44,17.70
2015,08,29,08,45,25.70
2015,08,29,08,46,20.90
2015,08,29,08,47,16.10
2015,08,29,08,48,16.10
2015,08,29,08,49,19.30
2015,08,29,08,50,11.30
2015,08,29,08,51,19.30
2015,08,29,08,52,14.50
2015,08,29,08,53,19.30
2015,08,29,08,54,19.30
2015,08,29,08,55,16.10
2015,08,29,08,56,17.70
2015,08,29,08,57,24.20
2015,08,29,08,58,9.60
2015,08,29,08,59,12.90
2015,08,29,09,00,12.90
2015,08,29,09,01,17.70
2015,08,29,09,02,30.60
2015,08,29,09,03,14.50
2015,08,29,09,04,16.10
2015,08,29,09,05,19.30
2015,08,29,09,06,25.70
2015,08,29,09,07,19.30
2015,08,29,09,08,19.30
2015,08,29,09,09,12.90
2015,08,29,09,10,12.90
2015,08,29,09,11,19.30
2015,08,29,09,12,20.90
2015,08,29,09,13,12.90
2015,08,29,09,14,14.50
2015,08,29,09,15,8.10
2015,08,29,09,16,14.50
2015,08,29,09,17,12.90
2015,08,29,09,18,22.50
2015,08,29,09,19,17.70
2015,08,29,09,20,17.70
2015,08,29,09,21,16.10
2015,08,29,09,22,14.50
2015,08,29,09,23,17.70
2015,08,29,09,24,17.70
2015,08,29,09,25,20.90
2015,08,29,09,26,14.50
2015,08,29,09,27,16.10
2015,08,29,09,28,20.90
2015,08,29,09,29,16.10
2015,08,29,09,30,24.20
2015,08,29,09,31,20.90
2015,08,29,09,32,19.30
2015,08,29,09,33,12.90
2015,08,29,09,34,16.10
2015,08,29,09,35,19.30
2015,08,29,09,36,14.50
2015,08,29,09,37,9.60
2015,08,29,09,38,24.20
2015,08,29,09,39,22.50
2015,08,29,09,40,12.90
2015,08,29,09,41,24.20
2015,08,29,09,42,12.90
2015,08,29,09,43,24.20
2015,08,29,09,44,14.50
2015,08,29,09,45,17.70
2015,08,29,09,46,17.70
2015,08,29,09,47,22.50
2015,08,29,09,48,16.10
2015,08,29,09,49,9.60
2015,08,29,09,50,19.30
2015,08,29,09,51,16.10
2015,08,29,09,52,16.10
2015,08,29,09,53,16.10
2015,08,29,09,54,19.30
2015,08,29,09,55,14.50
2015,08,29,09,56,14.50
2015,08,29,09,57,24.20
2015,08,29,09,58,11.30
2015,08,29,09,59,20.90
2015,08,29,10,00,19.30
2015,08,29,10,01,19.30
2015,08,29,10,02,22.50
2015,08,29,10,03,32.20
2015,08,29,10,04,27.40
2015,08,29,10,05,35.40
2015,08,29,10,06,22.50
2015,08,29,10,07,12.90
2015,08,29,10,08,14.50
2015,08,29,10,09,14.50
2015,08,29,10,10,16.10
2015,08,29,10,11,11.30
2015,08,29,10,12,16.10
2015,08,29,10,13,30.60
2015,08,29,10,14,19.30
2015,08,29,10,15,19.30
2015,08,29,10,16,12.90
2015,08,29,10,17,22.50
2015,08,29,10,18,24.20
2015,08,29,10,19,12.90
2015,08,29,10,20,19.30
2015,08,29,10,21,14.50
2015,08,29,10,22,14.50
2015,08,29,10,23,16.10
2015,08,29,10,24,17.70
2015,08,29,10,25,19.30
2015,08,29,10,26,16.10
2015,08,29,10,27,25.70
2015,08,29,10,28,17.70
2015,08,29,10,29,19.30
2015,08,29,10,30,20.90
2015,08,29,10,31,20.90
2015,08,29,10,32,16.10
2015,08,29,10,33,22.50
2015,08,29,10,34,24.20
2015,08,29,10,35,17.70
2015,08,29,10,36,14.50
2015,08,29,10,37,17.70
2015,08,29,10,38,20.90
2015,08,29,10,39,20.90
2015,08,29,10,40,12.90
2015,08,29,10,41,16.10
2015,08,29,10,42,19.30
2015,08,29,10,43,25.70
2015,08,29,10,44,16.10
2015,08,29,10,45,17.70
2015,08,29,10,46,17.70
2015,08,29,10,47,27.40
2015,08,29,10,48,29.00
2015,08,29,10,49,24.20
2015,08,29,10,50,16.10
2015,08,29,10,51,19.30
2015,08,29,10,52,22.50
2015,08,29,10,53,24.20
2015,08,29,10,54,25.70
2015,08,29,10,55,20.90
2015,08,29,10,56,19.30
2015,08,29,10,57,24.20
2015,08,29,10,58,17.70
2015,08,29,10,59,33.80
2015,08,29,11,00,24.20
2015,08,29,11,01,27.40
2015,08,29,11,02,20.90
2015,08,29,11,03,16.10
2015,08,29,11,04,27.40
2015,08,29,11,05,16.10
2015,08,29,11,06,24.20
2015,08,29,11,07,14.50
2015,08,29,11,08,22.50
2015,08,29,11,09,16.10
2015,08,29,11,10,11.30
2015,08,29,11,11,17.70
2015,08,29,11,12,22.50
2015,08,29,11,13,24.20
2015,08,29,11,14,35.40
2015,08,29,11,15,14.50
2015,08,29,11,16,25.70
2015,08,29,11,17,27.40
2015,08,29,11,18,19.30
2015,08,29,11,19,29.00
2015,08,29,11,20,29.00
2015,08,29,11,21,30.60
2015,08,29,11,22,16.10
2015,08,29,11,23,12.90
2015,08,29,11,24,17.70
2015,08,29,11,25,12.90
2015,08,29,11,26,17.70
2015,08,29,11,27,25.70
2015,08,29,11,28,20.90
2015,08,29,11,29,25.70
2015,08,29,11,30,27.40
2015,08,29,11,31,29.00
2015,08,29,11,32,25.70
2015,08,29,11,33,19.30
2015,08,29,11,34,22.50
2015,08,29,11,35,25.70
2015,08,29,11,36,20.90
2015,08,29,11,37,17.70
2015,08,29,11,38,25.70
2015,08,29,11,39,20.90
2015,08,29,11,40,29.00
2015,08,29,11,41,22.50
2015,08,29,11,42,17.70
2015,08,29,11,43,17.70
2015,08,29,11,44,22.50
2015,08,29,11,45,22.50
2015,08,29,11,46,14.50
2015,08,29,11,47,17.70
2015,08,29,11,48,17.70
2015,08,29,11,49,17.70
2015,08,29,11,50,11.30
2015,08,29,11,51,20.90
2015,08,29,11,52,8.10
2015,08,29,11,53,11.30
2015,08,29,11,54,16.10
2015,08,29,11,55,16.10
2015,08,29,11,56,25.70
2015,08,29,11,57,11.30
2015,08,29,11,58,22.50
2015,08,29,11,59,17.70
2015,08,29,12,00,17.70
2015,08,29,12,01,29.00
2015,08,29,12,02,25.70
2015,08,29,12,03,29.00
2015,08,29,12,04,24.20
2015,08,29,12,05,17.70
2015,08,29,12,06,24.20
2015,08,29,12,07,24.20
2015,08,29,12,08,19.30
2015,08,29,12,09,24.20
2015,08,29,12,10,27.40
2015,08,29,12,11,24.20
2015,08,29,12,12,20.90
2015,08,29,12,13,22.50
2015,08,29,12,14,20.90
2015,08,29,12,15,25.70
2015,08,29,12,16,25.70
2015,08,29,12,17,17.70
2015,08,29,12,18,17.70
2015,08,29,12,19,14.50
2015,08,29,12,20,14.50
2015,08,29,12,21,19.30
2015,08,29,12,22,19.30
2015,08,29,12,23,12.90
2015,08,29,12,24,16.10
2015,08,29,12,25,16.10
2015,08,29,12,26,25.70
2015,08,29,12,27,20.90
2015,08,29,12,28,20.90
2015,08,29,12,29,8.10
2015,08,29,12,30,12.90
2015,08,29,12,31,16.10
2015,08,29,12,32,16.10
2015,08,29,12,33,11.30
2015,08,29,12,34,8.10
2015,08,29,12,35,8.10
2015,08,29,12,36,12.90
2015,08,29,12,37,17.70
2015,08,29,12,38,22.50
2015,08,29,12,39,16.10
2015,08,29,12,40,20.90
2015,08,29,12,41,17.70
2015,08,29,12,42,25.70
2015,08,29,12,43,17.70
2015,08,29,12,44,20.90
2015,08,29,12,45,16.10
2015,08,29,12,46,19.30
2015,08,29,12,47,16.10
2015,08,29,12,48,19.30
2015,08,29,12,49,27.40
2015,08,29,12,50,16.10
2015,08,29,12,51,17.70
2015,08,29,12,52,14.50
2015,08,29,12,53,6.40
2015,08,29,12,54,20.90
2015,08,29,12,55,19.30
2015,08,29,12,56,19.30
2015,08,29,12,57,17.70
2015,08,29,12,58,17.70
2015,08,29,12,59,19.30
2015,08,29,13,00,11.30
2015,08,29,13,01,9.60
2015,08,29,13,02,16.10
2015,08,29,13,03,12.90
2015,08,29,13,04,11.30
2015,08,29,13,05,12.90
2015,08,29,13,06,17.70
2015,08,29,13,07,14.50
2015,08,29,13,08,8.10
2015,08,29,13,09,4.80
2015,08,29,13,10,20.90
2015,08,29,13,11,12.90
2015,08,29,13,12,14.50
2015,08,29,13,13,14.50
2015,08,29,13,14,12.90
2015,08,29,13,15,17.70
2015,08,29,13,16,12.90
2015,08,29,13,17,17.70
2015,08,29,13,18,9.60
2015,08,29,13,19,17.70
2015,08,29,13,20,4.80
2015,08,29,13,21,14.50
2015,08,29,13,22,12.90
2015,08,29,13,23,9.60
2015,08,29,13,24,14.50
2015,08,29,13,25,4.80
2015,08,29,13,26,9.60
2015,08,29,13,27,11.30
2015,08,29,13,28,8.10
2015,08,29,13,29,8.10
2015,08,29,13,30,17.70
2015,08,29,13,31,22.50
2015,08,29,13,32,20.90
2015,08,29,13,33,8.10
2015,08,29,13,34,11.30
2015,08,29,13,35,16.10
2015,08,29,13,36,9.60
2015,08,29,13,37,9.60
2015,08,29,13,38,12.90
2015,08,29,13,39,8.10
2015,08,29,13,40,16.10
2015,08,29,13,41,12.90
2015,08,29,13,42,12.90
2015,08,29,13,43,14.50
2015,08,29,13,44,16.10
2015,08,29,13,45,9.60
2015,08,29,13,46,27.40
2015,08,29,13,47,17.70
2015,08,29,13,48,12.90
2015,08,29,13,49,14.50
2015,08,29,13,50,11.30
2015,08,29,13,51,12.90
2015,08,29,13,52,22.50
2015,08,29,13,53,14.50
2015,08,29,13,54,12.90
2015,08,29,13,55,20.90
2015,08,29,13,56,12.90
2015,08,29,13,57,17.70
2015,08,29,13,58,11.30
2015,08,29,13,59,22.50
2015,08,29,14,00,17.70
2015,08,29,14,01,12.90
2015,08,29,14,02,16.10
2015,08,29,14,03,20.90
2015,08,29,14,04,27.40
2015,08,29,14,05,25.70
2015,08,29,14,06,12.90
2015,08,29,14,07,20.90
2015,08,29,14,08,19.30
2015,08,29,14,09,11.30
2015,08,29,14,10,16.10
2015,08,29,14,11,32.20
2015,08,29,14,12,24.20
2015,08,29,14,13,16.10
2015,08,29,14,14,22.50
2015,08,29,14,15,14.50
2015,08,29,14,16,19.30
2015,08,29,14,17,25.70
2015,08,29,14,18,16.10
2015,08,29,14,19,16.10
2015,08,29,14,20,17.70
2015,08,29,14,21,16.10
2015,08,29,14,22,12.90
2015,08,29,14,23,17.70
2015,08,29,14,24,22.50
2015,08,29,14,25,22.50
2015,08,29,14,26,25.70
2015,08,29,14,27,29.00
2015,08,29,14,28,17.70
2015,08,29,14,29,16.10
2015,08,29,14,30,17.70
2015,08,29,14,31,12.90
2015,08,29,14,32,20.90
2015,08,29,14,33,19.30
2015,08,29,14,34,22.50
2015,08,29,14,35,29.00
2015,08,29,14,36,16.10
2015,08,29,14,37,20.90
2015,08,29,14,38,22.50
2015,08,29,14,39,17.70
2015,08,29,14,40,19.30
2015,08,29,14,41,8.10
2015,08,29,14,42,12.90
2015,08,29,14,43,12.90
2015,08,29,14,44,20.90
2015,08,29,14,45,24.20
2015,08,29,14,46,14.50
2015,08,29,14,47,9.60
2015,08,29,14,48,9.60
2015,08,29,14,49,25.70
2015,08,29,14,50,25.70
2015,08,29,14,51,14.50
2015,08,29,14,52,11.30
2015,08,29,14,53,11.30
2015,08,29,14,54,16.10
2015,08,29,14,55,9.60
2015,08,29,14,56,20.90
2015,08,29,14,57,19.30
2015,08,29,14,58,11.30
2015,08,29,14,59,51.50
2015,08,29,15,00,48.30
2015,08,29,15,01,17.70
2015,08,29,15,06,12.90
2015,08,29,15,07,11.30
2015,08,29,15,08,12.90
2015,08,29,15,09,9.60
2015,08,29,15,10,11.30
2015,08,29,15,11,9.60
2015,08,29,15,12,9.60
2015,08,29,15,13,6.40
2015,08,29,15,14,9.60
2015,08,29,15,15,16.10
2015,08,29,15,16,14.50
2015,08,29,15,17,12.90
2015,08,29,15,18,9.60
2015,08,29,15,19,12.90
2015,08,29,15,20,14.50
2015,08,29,15,21,17.70
2015,08,29,15,22,16.10
2015,08,29,15,23,14.50
2015,08,29,15,24,24.20
2015,08,29,15,25,16.10
2015,08,29,15,26,24.20
2015,08,29,15,27,9.60
2015,08,29,15,28,11.30
2015,08,29,15,29,8.10
2015,08,29,15,30,9.60
2015,08,29,15,31,22.50
2015,08,29,15,32,20.90
2015,08,29,15,33,12.90
2015,08,29,15,34,8.10
2015,08,29,15,35,11.30
2015,08,29,15,36,12.90
2015,08,29,15,37,19.30
2015,08,29,15,38,17.70
2015,08,29,15,39,11.30
2015,08,29,15,40,12.90
2015,08,29,15,41,12.90
2015,08,29,15,42,9.60
2015,08,29,15,43,6.40
2015,08,29,15,44,11.30
2015,08,29,15,45,8.10
2015,08,29,15,46,8.10
2015,08,29,15,47,14.50
2015,08,29,15,48,16.10
2015,08,29,15,49,9.60
2015,08,29,15,50,17.70
2015,08,29,15,51,12.90
2015,08,29,15,52,11.30
2015,08,29,15,53,17.70
2015,08,29,15,54,11.30
2015,08,29,15,55,8.10
2015,08,29,15,56,12.90
2015,08,29,15,57,9.60
2015,08,29,15,58,8.10
2015,08,29,15,59,9.60
2015,08,29,16,00,9.60
2015,08,29,16,01,16.10
2015,08,29,16,02,12.90
2015,08,29,16,03,9.60
2015,08,29,16,04,14.50
2015,08,29,16,05,11.30
2015,08,29,16,06,17.70
2015,08,29,16,07,19.30
2015,08,29,16,08,17.70
2015,08,29,16,09,16.10
2015,08,29,16,10,11.30
2015,08,29,16,11,17.70
2015,08,29,16,12,14.50
2015,08,29,16,13,12.90
2015,08,29,16,14,16.10
2015,08,29,16,15,12.90
2015,08,29,16,16,8.10
2015,08,29,16,17,8.10
2015,08,29,16,18,6.40
2015,08,29,16,19,12.90
2015,08,29,16,20,14.50
2015,08,29,16,21,14.50
2015,08,29,16,22,16.10
2015,08,29,16,23,12.90
2015,08,29,16,24,14.50
2015,08,29,16,25,24.20
2015,08,29,16,26,19.30
2015,08,29,16,27,22.50
2015,08,29,16,28,14.50
2015,08,29,16,29,11.30
2015,08,29,16,30,14.50
2015,08,29,16,31,11.30
2015,08,29,16,32,8.10
2015,08,29,16,33,11.30
2015,08,29,16,34,19.30
2015,08,29,16,35,12.90
2015,08,29,16,36,12.90
2015,08,29,16,37,9.60
2015,08,29,16,38,14.50
2015,08,29,16,39,16.10
2015,08,29,16,40,8.10
2015,08,29,16,41,6.40
2015,08,29,16,42,12.90
2015,08,29,16,43,11.30
2015,08,29,16,44,6.40
2015,08,29,16,45,6.40
2015,08,29,16,46,11.30
2015,08,29,16,47,11.30
2015,08,29,16,48,9.60
2015,08,29,16,49,8.10
2015,08,29,16,50,12.90
2015,08,29,16,51,8.10
2015,08,29,16,52,17.70
2015,08,29,16,53,12.90
2015,08,29,16,54,20.90
2015,08,29,16,55,12.90
2015,08,29,16,56,12.90
2015,08,29,16,57,9.60
2015,08,29,16,58,11.30
2015,08,29,16,59,11.30
2015,08,29,17,00,11.30
2015,08,29,17,01,8.10
2015,08,29,17,02,16.10
2015,08,29,17,03,14.50
2015,08,29,17,04,14.50
2015,08,29,17,05,14.50
2015,08,29,17,06,16.10
2015,08,29,17,07,16.10
2015,08,29,17,08,16.10
2015,08,29,17,09,6.40
2015,08,29,17,10,8.10
2015,08,29,17,11,11.30
2015,08,29,17,12,11.30
2015,08,29,17,13,14.50
2015,08,29,17,14,9.60
2015,08,29,17,15,19.30
2015,08,29,17,16,9.60
2015,08,29,17,17,16.10
2015,08,29,17,18,9.60
2015,08,29,17,19,4.80
2015,08,29,17,20,14.50
2015,08,29,17,21,4.80
2015,08,29,17,22,12.90
2015,08,29,17,23,12.90
2015,08,29,17,24,11.30
2015,08,29,17,25,8.10
2015,08,29,17,26,19.30
2015,08,29,17,27,11.30
2015,08,29,17,28,14.50
2015,08,29,17,29,17.70
2015,08,29,17,30,14.50
2015,08,29,17,31,6.40
2015,08,29,17,32,16.10
2015,08,29,17,33,16.10
2015,08,29,17,34,17.70
2015,08,29,17,35,9.60
2015,08,29,17,36,14.50
2015,08,29,17,37,11.30
2015,08,29,17,38,8.10
2015,08,29,17,39,17.70
2015,08,29,17,40,20.90
2015,08,29,17,41,14.50
2015,08,29,17,42,17.70
2015,08,29,17,43,16.10
2015,08,29,17,44,16.10
2015,08,29,17,45,9.60
2015,08,29,17,46,17.70
2015,08,29,17,47,17.70
2015,08,29,17,48,12.90
2015,08,29,17,49,17.70
2015,08,29,17,50,12.90
2015,08,29,17,51,17.70
2015,08,29,17,52,19.30
2015,08,29,17,53,8.10
2015,08,29,17,54,8.10
2015,08,29,17,55,12.90
2015,08,29,17,56,4.80
2015,08,29,17,57,6.40
2015,08,29,17,58,20.90
2015,08,29,17,59,9.60
2015,08,29,18,00,16.10
2015,08,29,18,01,11.30
2015,08,29,18,02,8.10
2015,08,29,18,03,12.90
2015,08,29,18,04,4.80
2015,08,29,18,05,16.10
2015,08,29,18,06,8.10
2015,08,29,18,07,11.30
2015,08,29,18,08,17.70
2015,08,29,18,09,14.50
2015,08,29,18,10,4.80
2015,08,29,18,11,11.30
2015,08,29,18,12,14.50
2015,08,29,18,13,9.60
2015,08,29,18,14,11.30
2015,08,29,18,15,9.60
2015,08,29,18,16,11.30
2015,08,29,18,17,17.70
2015,08,29,18,18,12.90
2015,08,29,18,19,8.10
2015,08,29,18,20,8.10
2015,08,29,18,21,11.30
2015,08,29,18,22,14.50
2015,08,29,18,23,12.90
2015,08,29,18,24,12.90
2015,08,29,18,25,9.60
2015,08,29,18,26,11.30
2015,08,29,18,27,12.90
2015,08,29,18,28,12.90
2015,08,29,18,29,14.50
2015,08,29,18,30,9.60
2015,08,29,18,31,11.30
2015,08,29,18,32,16.10
2015,08,29,18,33,12.90
2015,08,29,18,34,9.60
2015,08,29,18,35,6.40
2015,08,29,18,36,11.30
2015,08,29,18,37,8.10
2015,08,29,18,38,11.30
2015,08,29,18,39,11.30
2015,08,29,18,40,11.30
2015,08,29,18,41,9.60
2015,08,29,18,42,8.10
2015,08,29,18,43,6.40
2015,08,29,18,44,9.60
2015,08,29,18,45,9.60
2015,08,29,18,46,8.10
2015,08,29,18,47,8.10
2015,08,29,18,48,8.10
2015,08,29,18,49,9.60
2015,08,29,18,50,8.10
2015,08,29,18,51,9.60
2015,08,29,18,52,6.40
2015,08,29,18,53,9.60
2015,08,29,18,54,9.60
2015,08,29,18,55,6.40
2015,08,29,18,56,11.30
2015,08,29,18,57,9.60
2015,08,29,18,58,8.10
2015,08,29,18,59,11.30
2015,08,29,19,00,9.60
2015,08,29,19,01,11.30
2015,08,29,19,02,11.30
2015,08,29,19,03,4.80
2015,08,29,19,04,12.90
2015,08,29,19,05,11.30
2015,08,29,19,06,6.40
2015,08,29,19,07,11.30
2015,08,29,19,08,6.40
2015,08,29,19,09,6.40
2015,08,29,19,10,12.90
2015,08,29,19,11,4.80
2015,08,29,19,12,8.10
2015,08,29,19,13,4.80
2015,08,29,19,14,9.60
2015,08,29,19,15,9.60
2015,08,29,19,16,6.40
2015,08,29,19,17,4.80
2015,08,29,19,18,8.10
2015,08,29,19,19,6.40
2015,08,29,19,20,4.80
2015,08,29,19,21,4.80
2015,08,29,19,22,4.80
2015,08,29,19,23,4.80
2015,08,29,19,24,3.20
2015,08,29,19,25,9.60
2015,08,29,19,26,12.90
2015,08,29,19,27,4.80
2015,08,29,19,28,6.40
2015,08,29,19,29,4.80
2015,08,29,19,30,3.20
2015,08,29,19,31,6.40
2015,08,29,19,32,9.60
2015,08,29,19,33,8.10
2015,08,29,19,34,3.20
2015,08,29,19,35,6.40
2015,08,29,19,36,6.40
2015,08,29,19,37,6.40
2015,08,29,19,38,6.40
2015,08,29,19,39,6.40
2015,08,29,19,40,8.10
2015,08,29,19,41,8.10
2015,08,29,19,42,6.40
2015,08,29,19,43,6.40
2015,08,29,19,44,11.30
2015,08,29,19,45,8.10
2015,08,29,19,46,4.80
2015,08,29,19,47,6.40
2015,08,29,19,48,4.80
2015,08,29,19,49,3.20
2015,08,29,19,50,9.60
2015,08,29,19,51,4.80
2015,08,29,19,52,8.10
2015,08,29,19,53,4.80
2015,08,29,19,54,4.80
2015,08,29,19,55,3.20
2015,08,29,19,56,3.20
2015,08,29,19,57,8.10